Terug naar catalogus

FENGYUN 1C DEB

ActiefSSO
NORAD 30054·DEBRIS·🇨🇳 China

Gelanceerd May 10, 1999 vanaf Taiyuan Satellite Launch Center

Loading…

Volgende Passages (komende 24 uur)

TLE

VersSource: Space-Track

Epoch: Sep 14, 2026, 00:35 UTC

1 30054U 99025PF  26257.02448969  .00000293  00000-0  29169-3 0  9995
2 30054  99.3430 286.9501 0276119   9.1801  19.6629 13.70140244981184

Volg FENGYUN 1C DEB in realtime met AllMySat

Download on the App Store